Temp
63 63 64 63 63 63 64 63 63 63 63 63 63 63 62 62 62 60 50 58 61 65 66 62 63 63 62 55 56 57 42 41 42 44 45 50 46 51 54 49 51 51 52 55 56
62 62 62 62 62 63 63 63 63 63 63 63 63 63 62 62 63 54 62 64 64 65 60 55 53 57 50 51 50 46 41 41 47 46 43 46 46 46 45 46 47 50 55 56 54
62 61 61 62 62 62 63 63 63 63 63 62 62 62 62 61 58 52 65 64 65 65 63 60 60 56 49 49 46 45 39 45 48 48 46 44 44 48 43 39 46 43 47 51 50
61 61 61 61 61 61 62 62 63 63 63 63 62 62 62 63 43 57 65 64 65 65 61 58 56 49 45 43 48 39 46 47 46 47 44 41 46 42 43 43 48 48 49 49 48
61 60 60 60 60 61 61 62 62 63 62 62 63 63 61 51 47 63 64 63 62 60 54 52 48 47 42 45 46 41 43 46 47 45 44 47 41 41 42 46 48 50 50 46 46
60 60 60 60 60 60 61 61 62 62 62 62 62 63 60 42 59 63 61 60 58 55 52 51 48 50 45 44 40 42 42 42 45 44 45 41 39 41 43 48 48 48 45 44 45
60 59 59 59 59 60 61 61 62 61 61 62 62 66 52 46 62 61 61 57 58 55 50 52 52 47 46 42 45 44 36 42 43 43 40 41 33 37 43 48 46 45 44 44 44
59 59 59 59 59 60 60 61 61 61 61 61 62 63 46 60 62 59 58 57 59 58 55 54 54 49 45 46 44 39 36 27 41 41 40 36 23 39 43 42 40 42 41 43 43
59 59 58 59 60 60 60 61 61 61 62 63 60 58 47 61 55 58 56 51 55 56 55 59 51 44 45 36 31 33 19 25 30 42 40 35 26 39 46 41 36 37 38 40 41
58 58 58 58 58 58 59 60 61 61 61 66 65 52 53 47 53 55 56 55 51 49 49 48 44 37 35 30 15 21 20 24 26 35 38 30 30 38 42 39 34 35 37 38 40
58 57 58 57 57 58 59 57 54 53 53 47 47 49 50 53 57 51 53 53 53 47 35 41 31 25 29 32 32 28 23 22 30 37 29 28 29 34 39 36 32 33 35 36 39
58 57 57 58 58 59 57 55 50 52 42 52 52 52 52 52 45 48 53 43 42 33 39 33 25 33 37 36 31 27 22 20 27 33 30 27 27 34 38 36 36 36 34 35 37
57 57 57 57 58 57 54 51 57 57 46 46 50 48 47 51 42 41 46 42 37 33 31 27 31 38 36 31 26 25 20 20 19 27 30 25 21 28 35 37 38 36 35 38 37
57 57 56 57 54 56 51 56 57 56 40 43 46 47 49 49 40 50 49 40 37 29 31 29 37 33 30 28 27 18 29 26 23 19 7 23 5 25 30 31 34 34 34 34 36
56 56 56 56 54 52 53 57 56 50 36 45 45 54 50 42 41 44 49 42 29 30 29 25 27 26 27 26 29 23 29 25 24 15 10 17 4 19 30 28 31 32 33 34 36
55 56 57 57 54 52 55 55 50 40 33 41 45 42 42 43 42 45 41 43 40 31 33 29 36 29 26 30 31 31 25 25 23 16 1 9 8 12 20 25 29 32 33 34 35
55 55 57 59 49 55 54 49 41 36 46 39 35 41 38 35 38 39 31 23 20 17 21 29 27 30 32 24 29 23 17 5 3 3 3 16 12 12 26 31 31 29 31 33 34
54 55 55 55 55 54 49 43 37 41 38 42 40 40 34 33 34 36 31 25 26 22 18 16 18 23 30 19 11 17 11 -2 -9 3 8 19 1 14 31 33 34 34 33 33 33
54 54 54 53 54 51 44 36 34 34 36 33 39 35 33 35 32 33 24 21 20 20 11 12 21 28 28 28 21 17 8 18 3 9 2 12 16 22 31 30 30 29 32 30 31
53 54 51 54 53 47 43 37 35 37 39 39 31 33 28 30 29 27 26 22 21 24 22 17 6 26 27 28 26 17 21 5 2 -8 -5 10 4 10 15 20 24 27 27 29 29
51 50 51 54 50 46 36 33 34 40 40 34 31 29 27 26 27 25 24 25 25 27 25 16 11 19 25 18 8 14 6 10 8 4 -7 -4 4 13 12 12 21 24 26 26 27
50 47 52 51 46 43 35 36 41 36 40 36 33 28 26 27 23 25 25 26 27 26 16 19 9 7 16 16 17 16 8 7 0 -2 2 -3 5 22 13 24 24 23 24 26 26
47 49 52 50 42 36 35 37 39 36 36 34 32 32 30 26 19 26 27 32 32 27 17 17 11 8 10 12 17 8 11 7 8 6 -2 -7 2 20 26 23 24 22 24 23 24
48 44 47 47 42 36 34 36 33 36 37 36 33 33 30 29 31 23 27 30 31 29 33 28 15 10 10 15 14 9 12 7 9 5 -2 6 12 18 20 19 21 22 23 22 22
46 41 39 40 39 37 36 34 34 32 35 35 31 32 26 19 28 27 29 28 29 31 27 20 9 18 20 22 20 16 13 8 6 11 -1 12 9 14 18 18 21 22 22 21 20
43 37 39 37 38 36 36 32 35 32 29 31 29 33 32 21 27 21 27 26 24 25 23 21 11 16 11 20 12 7 12 10 10 9 8 10 8 19 18 22 19 20 20 18 19
46 45 37 40 38 35 37 36 34 35 36 37 34 29 30 32 33 32 31 31 28 23 22 17 14 10 9 20 17 6 9 5 2 0 4 6 15 19 16 16 18 19 19 19 20
MSLP
1022.78 1022.60 1022.49 1022.47 1022.38 1022.24 1022.11 1021.94 1021.85 1021.80 1021.68 1021.53 1021.35 1021.16 1020.80 1020.64 1020.65 1020.38 1019.91 1022.04 1021.19 1020.27 1019.27 1018.33 1017.45 1016.79 1016.65 1016.84 1016.84 1016.50 1016.58 1016.23 1016.38 1016.84 1017.03 1017.70 1018.23 1018.33 1018.42 1018.49 1018.22 1017.90 1017.97 1018.43 1018.62
1023.15 1023.04 1022.96 1022.83 1022.75 1022.56 1022.36 1022.20 1022.09 1022.01 1021.86 1021.64 1021.41 1021.16 1021.00 1020.86 1020.34 1020.91 1022.37 1021.78 1021.15 1020.40 1019.33 1018.77 1018.10 1017.38 1017.44 1017.61 1017.75 1017.72 1017.52 1017.96 1018.25 1018.50 1018.89 1019.05 1019.15 1019.14 1019.16 1018.95 1018.76 1018.34 1018.36 1018.56 1018.95
1023.47 1023.38 1023.26 1023.16 1023.05 1022.83 1022.62 1022.49 1022.35 1022.22 1022.02 1021.78 1021.52 1021.13 1021.11 1021.04 1020.66 1022.28 1022.22 1021.80 1021.24 1020.39 1019.47 1018.97 1018.41 1018.14 1018.13 1018.56 1019.20 1018.96 1019.06 1019.22 1019.26 1019.63 1020.02 1020.08 1019.92 1019.76 1019.58 1019.36 1019.37 1019.50 1019.55 1019.61 1019.78
1023.75 1023.62 1023.50 1023.38 1023.24 1023.11 1022.94 1022.78 1022.57 1022.40 1022.19 1021.95 1021.68 1021.17 1020.96 1020.55 1022.82 1023.18 1022.66 1022.21 1021.56 1020.71 1019.90 1019.26 1018.87 1018.81 1019.15 1019.72 1019.99 1020.02 1020.07 1020.21 1020.15 1020.35 1020.50 1020.58 1020.39 1020.23 1020.13 1019.71 1019.59 1019.93 1020.05 1020.09 1020.25
1024.04 1023.88 1023.68 1023.54 1023.43 1023.30 1023.16 1022.99 1022.75 1022.60 1022.40 1022.09 1021.62 1021.32 1021.07 1021.99 1024.02 1023.68 1023.15 1022.70 1022.07 1021.35 1020.95 1020.46 1020.29 1020.10 1020.44 1020.48 1020.57 1020.63 1020.86 1020.72 1020.50 1020.69 1020.87 1020.67 1020.56 1020.44 1019.89 1019.65 1019.83 1020.07 1020.31 1020.43 1020.49
1024.23 1024.02 1023.83 1023.69 1023.57 1023.44 1023.29 1023.11 1022.88 1022.73 1022.55 1022.29 1021.78 1021.01 1021.17 1023.36 1024.54 1023.95 1023.44 1023.03 1022.81 1022.27 1021.96 1021.71 1021.74 1021.43 1021.01 1021.12 1021.44 1021.61 1021.37 1020.92 1020.59 1020.76 1020.71 1020.80 1020.51 1020.66 1019.67 1019.48 1019.68 1019.89 1020.43 1020.93 1021.13
1024.36 1024.17 1023.93 1023.76 1023.65 1023.52 1023.37 1023.20 1023.03 1022.90 1022.71 1022.50 1022.09 1021.57 1022.69 1024.84 1024.43 1024.23 1023.68 1023.40 1023.24 1022.96 1022.57 1022.56 1022.46 1021.94 1021.86 1021.52 1021.89 1021.80 1021.63 1020.78 1020.59 1020.92 1020.92 1021.25 1020.54 1020.05 1019.44 1019.36 1019.63 1020.09 1020.82 1021.29 1021.45
1024.46 1024.25 1024.05 1023.82 1023.69 1023.59 1023.47 1023.34 1023.24 1023.09 1022.79 1022.57 1022.20 1021.72 1023.74 1024.71 1024.44 1024.23 1024.16 1023.52 1023.08 1023.16 1023.06 1022.92 1022.65 1022.43 1022.15 1022.04 1022.03 1021.95 1021.81 1021.61 1021.05 1021.15 1021.35 1021.57 1020.91 1020.25 1019.60 1019.63 1019.99 1020.57 1021.13 1021.37 1021.37
1024.66 1024.45 1024.22 1023.99 1023.81 1023.70 1023.59 1023.49 1023.28 1023.06 1022.81 1022.41 1022.30 1021.97 1024.08 1024.61 1024.58 1024.66 1024.65 1024.12 1023.48 1023.22 1023.03 1022.64 1022.63 1022.67 1022.67 1022.67 1022.38 1022.75 1023.59 1023.45 1022.51 1021.72 1021.22 1021.21 1020.48 1020.04 1019.84 1019.64 1020.19 1020.83 1021.29 1021.37 1021.30
1024.99 1024.75 1024.57 1024.35 1024.12 1023.94 1023.76 1023.53 1023.08 1022.97 1022.73 1022.29 1022.37 1023.12 1024.51 1025.36 1025.27 1025.14 1024.84 1024.17 1023.77 1023.30 1023.15 1022.77 1022.99 1023.56 1024.64 1024.55 1025.82 1025.49 1025.33 1024.52 1023.81 1022.28 1021.69 1021.35 1020.80 1020.31 1019.63 1019.89 1020.40 1020.90 1021.32 1021.24 1021.20
1025.28 1025.05 1024.85 1024.64 1024.35 1024.09 1023.73 1023.48 1023.73 1023.56 1023.90 1024.79 1025.22 1025.17 1025.73 1026.00 1025.38 1025.36 1024.72 1023.91 1023.25 1023.71 1023.90 1023.94 1024.60 1025.58 1025.94 1026.58 1026.87 1026.87 1026.50 1025.43 1024.14 1023.18 1022.95 1022.38 1021.11 1020.13 1019.46 1019.82 1020.52 1020.98 1021.16 1021.34 1021.54
1025.45 1025.17 1024.96 1024.80 1024.54 1024.19 1023.94 1023.89 1025.07 1025.34 1025.58 1025.65 1025.76 1025.90 1026.42 1026.42 1025.83 1025.84 1025.50 1024.93 1024.76 1024.90 1024.44 1024.84 1026.17 1027.01 1027.00 1027.06 1027.25 1027.47 1027.06 1025.86 1024.69 1024.25 1024.17 1022.47 1020.80 1019.82 1019.48 1019.66 1020.42 1020.89 1021.15 1021.56 1021.73
1025.63 1025.42 1025.18 1024.98 1024.67 1024.43 1024.52 1025.30 1025.47 1025.21 1025.22 1026.06 1026.19 1026.31 1026.76 1026.62 1026.75 1026.73 1026.57 1026.35 1026.23 1026.11 1026.25 1026.56 1027.44 1027.34 1027.19 1027.27 1027.73 1027.66 1027.28 1026.74 1026.55 1025.15 1024.12 1023.18 1021.14 1019.76 1019.54 1019.87 1020.33 1020.92 1021.35 1021.56 1021.71
1025.86 1025.55 1025.31 1024.98 1025.08 1024.82 1025.20 1025.70 1025.56 1025.41 1025.48 1026.50 1026.17 1026.81 1026.80 1026.55 1027.12 1027.20 1027.37 1027.85 1027.20 1027.49 1027.47 1027.71 1027.83 1028.00 1028.06 1028.24 1028.69 1027.88 1027.02 1027.04 1026.63 1026.63 1026.16 1024.92 1023.61 1020.96 1020.11 1020.30 1020.43 1020.79 1021.10 1021.51 1021.85
1026.11 1025.70 1025.40 1024.86 1024.99 1025.22 1026.06 1025.81 1025.67 1025.57 1025.89 1026.55 1026.56 1026.80 1026.81 1027.07 1027.77 1027.37 1027.77 1027.83 1028.34 1028.52 1028.43 1028.52 1028.55 1028.66 1028.96 1029.35 1029.40 1028.71 1027.40 1026.82 1026.46 1026.99 1027.22 1025.70 1025.14 1021.55 1020.38 1020.31 1020.39 1020.94 1021.40 1021.86 1022.07
1026.32 1025.95 1025.43 1025.19 1025.23 1026.18 1026.06 1025.88 1025.83 1025.87 1025.87 1026.54 1026.74 1026.91 1026.83 1027.05 1027.77 1027.65 1028.37 1028.64 1028.95 1029.01 1028.72 1028.77 1029.14 1029.54 1029.98 1029.52 1029.32 1029.38 1027.86 1026.28 1026.42 1027.42 1027.93 1026.66 1025.75 1022.56 1021.11 1020.74 1020.71 1021.18 1021.71 1022.08 1021.88
1026.47 1026.27 1025.56 1025.50 1026.16 1026.17 1026.04 1025.82 1025.88 1026.19 1026.07 1026.93 1027.29 1027.37 1027.61 1028.02 1028.17 1028.52 1029.71 1030.94 1031.68 1031.03 1030.52 1029.54 1029.59 1029.75 1030.20 1029.98 1029.73 1030.45 1029.51 1029.47 1029.23 1028.94 1028.31 1027.18 1026.33 1023.09 1021.44 1020.97 1021.25 1021.84 1022.19 1022.13 1022.24
1026.62 1026.42 1026.36 1026.31 1026.36 1026.27 1026.05 1025.92 1026.50 1027.59 1027.53 1027.79 1027.78 1027.73 1028.25 1028.97 1029.01 1029.36 1030.40 1032.19 1033.14 1033.40 1032.96 1032.05 1030.12 1030.57 1030.81 1031.55 1032.16 1032.10 1032.51 1033.82 1034.61 1032.20 1030.13 1027.64 1026.41 1022.88 1021.07 1021.21 1021.64 1022.14 1022.31 1022.14 1021.68
1026.63 1026.13 1025.96 1026.44 1026.51 1026.49 1026.36 1026.92 1028.58 1029.10 1029.33 1029.16 1028.31 1028.51 1028.97 1029.43 1029.85 1030.08 1031.73 1033.32 1034.54 1034.71 1034.96 1034.18 1031.97 1031.43 1031.53 1031.98 1032.88 1033.15 1033.85 1034.83 1035.18 1033.89 1032.56 1028.02 1025.19 1023.00 1022.59 1022.56 1022.44 1022.54 1022.19 1022.12 1021.75
1026.58 1025.94 1026.15 1026.42 1026.51 1026.49 1026.49 1028.52 1029.54 1029.95 1030.04 1029.85 1029.92 1030.10 1030.41 1030.36 1030.63 1031.17 1032.15 1033.85 1034.78 1035.35 1035.57 1035.71 1034.80 1031.84 1032.02 1032.39 1033.28 1034.11 1034.98 1035.49 1036.24 1036.00 1033.86 1029.08 1027.01 1024.82 1024.10 1023.60 1023.39 1023.22 1022.70 1021.94 1021.45
1026.67 1026.03 1026.36 1026.48 1026.56 1026.47 1027.81 1029.31 1030.04 1030.54 1030.73 1030.92 1030.88 1031.14 1031.62 1031.71 1031.74 1032.06 1032.74 1033.85 1034.69 1035.20 1035.78 1036.16 1036.31 1033.14 1032.45 1032.92 1033.85 1034.65 1035.54 1036.28 1036.90 1037.21 1036.58 1033.37 1028.11 1025.28 1024.71 1024.39 1023.92 1023.10 1022.46 1021.62 1020.35
1026.56 1026.36 1026.27 1026.55 1026.80 1027.40 1028.89 1029.72 1030.33 1030.80 1031.17 1031.41 1031.66 1032.03 1032.25 1032.25 1032.53 1032.48 1032.90 1033.60 1034.66 1035.14 1035.69 1036.39 1036.56 1035.18 1033.78 1033.98 1034.35 1035.00 1035.78 1036.93 1038.16 1037.68 1037.36 1035.51 1029.58 1025.85 1025.09 1024.43 1023.96 1023.07 1021.96 1020.90 1020.26
1026.84 1026.39 1026.07 1026.14 1027.16 1028.40 1029.55 1030.15 1030.55 1031.02 1031.27 1031.63 1031.92 1032.30 1032.69 1032.69 1032.90 1032.60 1032.81 1033.42 1034.22 1034.89 1035.61 1036.45 1036.47 1035.60 1034.24 1034.96 1034.91 1035.28 1035.66 1036.63 1037.49 1037.79 1037.16 1036.23 1029.32 1026.10 1025.23 1025.07 1024.51 1023.13 1021.55 1020.51 1019.17
1027.08 1026.78 1026.37 1026.47 1027.56 1028.21 1029.12 1029.81 1030.68 1031.26 1031.45 1031.89 1032.13 1032.45 1032.61 1032.54 1032.48 1032.57 1032.70 1033.16 1033.76 1034.47 1035.18 1035.96 1036.23 1035.98 1035.35 1034.10 1033.94 1034.72 1035.42 1036.33 1037.35 1037.78 1035.69 1033.20 1028.47 1026.20 1025.99 1025.16 1023.56 1022.16 1021.16 1020.21 1018.93
1027.49 1027.86 1028.19 1028.00 1028.02 1028.43 1028.85 1029.64 1030.26 1031.04 1031.67 1032.03 1032.24 1032.34 1032.63 1032.82 1032.35 1032.38 1032.39 1032.79 1033.76 1034.41 1035.08 1035.90 1036.03 1035.06 1033.94 1033.03 1033.31 1033.89 1034.47 1035.49 1036.35 1035.23 1035.37 1031.08 1030.82 1028.01 1026.88 1025.56 1024.06 1022.49 1020.95 1019.33 1017.61
1027.95 1028.25 1028.73 1028.74 1028.76 1028.73 1029.10 1029.52 1029.82 1030.48 1031.06 1031.62 1031.93 1031.82 1032.36 1032.69 1032.41 1032.74 1032.56 1032.92 1033.46 1034.53 1034.96 1035.83 1035.64 1034.81 1032.81 1031.51 1032.37 1033.08 1033.16 1034.06 1034.65 1034.58 1033.91 1032.30 1030.41 1028.73 1027.34 1026.06 1024.28 1022.95 1020.93 1019.31 1017.35
1028.07 1028.33 1028.71 1029.13 1028.89 1028.94 1028.63 1028.97 1029.54 1030.09 1030.64 1030.80 1031.32 1031.98 1032.13 1032.17 1032.09 1032.21 1032.61 1032.82 1033.18 1034.07 1034.75 1035.68 1035.86 1035.37 1033.00 1031.53 1031.68 1031.98 1031.28 1032.35 1033.10 1032.89 1032.95 1031.72 1029.39 1028.37 1027.62 1026.06 1024.33 1022.19 1020.97 1019.07 1017.21
Wind_Speed
13 13 13 12 12 11 10 8 8 7 6 7 9 14 10 8 10 25 24 20 20 23 20 13 11 6 6 5 5 4 2 4 6 6 4 10 8 6 8 6 7 5 6 7 10
12 11 10 10 10 9 10 11 10 9 10 9 7 10 10 2 3 22 23 24 22 21 14 11 11 11 4 4 4 5 3 6 4 6 7 9 8 8 6 8 8 7 13 13 12
12 11 10 9 8 9 9 9 9 10 13 12 6 10 8 6 2 17 28 24 21 19 11 6 5 6 5 5 7 7 4 6 5 6 7 8 9 8 7 6 8 8 10 10 8
11 11 10 9 8 7 8 9 9 10 11 12 9 11 10 7 4 17 24 22 19 16 15 9 9 4 4 6 5 4 2 4 6 6 5 8 9 7 10 9 8 10 10 6 9
11 9 9 9 8 7 7 9 8 8 9 11 12 11 7 10 8 17 20 16 12 13 17 13 14 9 8 4 7 5 8 6 5 5 7 8 7 9 12 4 6 5 8 9 9
11 9 8 9 8 6 6 8 8 8 7 10 14 17 5 9 9 17 12 12 13 15 12 12 9 5 4 3 5 6 7 11 6 4 7 7 11 6 7 7 4 7 8 9 9
11 9 9 10 6 4 6 7 7 7 6 8 10 3 15 7 9 15 12 8 8 8 8 9 9 8 7 6 4 6 6 11 6 3 4 7 11 6 1 5 5 7 7 5 5
13 11 11 8 5 4 5 4 5 7 6 6 9 3 6 1 6 17 13 7 5 6 5 6 6 4 1 3 6 5 2 7 7 3 5 3 8 14 3 7 6 5 2 1 2
13 11 11 8 7 4 4 2 6 7 8 10 4 4 5 4 13 14 13 9 9 4 5 4 4 3 8 12 1 3 6 14 13 10 6 3 11 7 16 1 1 3 3 3 2
13 11 11 8 7 6 5 5 8 5 7 4 7 2 4 8 9 11 17 5 4 10 3 4 2 5 9 11 3 12 10 9 16 8 13 8 15 15 12 5 5 6 6 3 3
13 12 7 10 7 7 6 5 3 2 12 8 5 4 6 12 4 13 19 7 4 2 5 4 9 8 9 7 6 11 12 18 18 12 14 12 22 19 11 9 5 6 6 1 6
13 15 5 7 8 7 5 3 4 2 7 5 3 6 2 6 6 16 15 8 7 8 11 2 7 7 8 9 8 13 16 11 10 18 20 12 23 17 12 6 8 6 3 6 7
13 11 9 7 8 4 6 5 3 5 0 4 3 4 4 6 6 12 14 8 5 8 10 6 4 8 8 7 15 14 7 10 16 24 15 8 9 3 7 6 6 5 1 6 5
12 11 9 6 3 2 4 2 3 4 2 5 3 5 3 0 3 6 8 3 6 6 6 4 6 8 10 8 12 8 10 17 21 13 4 7 6 4 11 7 8 9 5 6 7
11 12 7 10 0 2 3 2 4 2 3 3 3 2 1 7 7 6 6 5 4 6 4 1 6 6 9 8 11 9 24 22 19 7 5 2 3 8 11 7 7 7 7 7 12
7 13 7 2 4 2 2 3 2 2 5 2 2 5 3 5 3 7 6 8 3 4 4 2 3 2 3 14 3 17 19 14 3 2 2 2 5 7 3 2 4 7 6 12 14
5 8 6 3 2 1 2 2 2 7 1 7 5 6 6 6 3 7 6 9 7 9 8 6 3 4 4 5 3 16 13 7 11 6 5 5 6 10 2 7 5 0 10 15 15
5 7 3 4 2 2 2 1 9 0 5 3 3 7 3 7 1 6 6 4 9 5 4 5 5 4 6 4 4 7 5 5 5 6 10 17 6 9 5 8 6 9 14 18 21
6 3 1 3 1 2 3 7 1 3 2 7 6 4 1 2 3 7 5 2 2 6 4 6 4 6 5 3 3 6 5 2 4 9 5 6 7 6 9 5 8 13 23 24 25
3 2 3 1 0 2 3 4 2 2 3 3 4 5 5 8 7 7 5 3 3 0 2 2 7 2 4 4 3 5 3 5 3 6 8 6 8 6 7 8 8 20 23 26 25
3 2 1 2 1 1 5 3 4 2 2 4 2 2 2 4 3 3 2 3 1 2 4 2 3 4 4 2 5 0 3 3 2 2 3 8 8 5 5 2 18 24 26 26 28
3 2 2 3 3 4 3 2 1 3 1 2 2 2 1 3 2 3 3 3 5 1 2 2 1 6 3 1 1 0 3 5 4 7 4 3 12 8 5 20 23 28 28 29 28
3 2 3 2 2 3 2 3 1 3 3 2 2 1 2 2 2 4 3 6 5 2 2 2 2 7 4 3 1 4 6 4 1 0 8 2 11 5 23 23 24 27 30 30 33
2 1 1 3 2 5 4 4 4 1 2 1 1 2 3 4 7 3 3 3 5 2 1 2 4 7 8 10 1 7 3 6 7 4 6 14 30 27 27 28 29 31 32 32 30
3 1 1 1 2 3 2 2 4 4 1 4 4 6 3 2 4 5 3 2 5 5 4 3 5 8 15 20 14 15 16 7 11 16 5 22 19 27 28 25 29 33 34 34 33
1 3 2 2 0 3 3 5 6 3 7 4 4 4 7 6 6 4 4 3 1 5 4 4 6 6 9 8 7 8 11 10 12 13 16 21 26 21 15 23 27 29 32 33 32
1 1 5 2 2 1 3 4 4 7 5 2 5 1 7 6 3 4 4 6 4 5 2 3 3 5 8 7 12 7 10 8 4 6 7 13 22 18 19 25 28 32 31 29 35
Wind_Direction
52 48 63 57 52 48 45 39 35 34 19 2 355 356 344 288 300 29 34 354 346 343 332 332 6 336 14 28 18 304 286 273 17 10 12 18 4 346 1 301 288 322 318 33 30
51 49 45 42 41 41 39 46 49 36 11 344 334 349 19 328 287 34 1 352 348 343 336 345 353 327 45 22 23 11 311 35 8 352 339 335 347 329 312 312 307 310 355 9 12
48 45 39 39 35 32 37 37 34 28 18 16 355 316 325 289 100 5 356 351 350 339 339 279 251 287 57 61 16 357 4 13 18 7 354 321 305 346 312 284 303 346 330 358 342
42 40 34 29 28 24 24 18 12 9 4 9 12 316 321 235 53 347 350 352 353 352 4 3 353 20 50 31 358 309 49 354 333 347 325 307 309 303 284 278 5 6 350 345 338
36 33 29 25 20 16 11 6 3 8 6 355 336 323 305 55 27 350 352 356 0 354 17 8 25 356 36 358 332 5 6 320 289 297 284 291 286 286 284 285 39 340 341 336 349
28 27 24 22 14 7 4 2 7 7 14 358 334 334 39 70 283 355 351 9 8 1 29 25 0 330 352 14 347 332 307 278 260 259 268 334 303 307 295 280 232 27 6 17 23
21 18 14 4 8 8 8 6 12 25 6 349 333 329 61 79 9 11 359 24 7 6 10 20 353 34 309 333 27 273 284 286 175 225 25 5 303 203 237 11 337 27 34 7 55
17 19 5 11 36 22 7 22 42 14 3 304 313 47 78 154 352 15 3 357 351 359 7 320 310 279 10 272 232 249 176 3 347 36 153 73 274 294 20 332 16 59 109 283 53
20 24 26 33 40 2 358 337 282 283 308 286 286 295 66 147 357 6 356 335 329 326 312 294 293 324 17 333 333 50 313 326 316 318 279 191 276 278 298 228 194 168 220 262 319
20 19 26 29 25 15 352 273 321 249 244 256 33 96 66 353 332 355 351 284 279 288 253 322 283 55 15 24 5 310 313 295 301 295 300 324 282 291 306 145 195 189 226 231 329
13 2 360 25 15 355 311 262 242 106 33 62 25 54 0 340 244 11 342 313 320 63 7 11 55 24 354 1 313 280 298 304 297 326 350 303 289 281 261 145 193 205 224 351 16
14 8 5 6 356 329 285 15 50 56 86 64 48 84 55 316 344 6 358 35 4 28 345 62 65 357 327 312 342 324 313 304 295 341 315 302 289 277 257 169 172 217 55 24 312
18 15 1 334 338 317 58 59 4 338 328 54 48 19 343 340 32 356 13 334 28 17 1 55 9 330 325 345 353 326 295 327 304 317 300 339 282 153 123 128 127 78 205 251 318
12 6 2 326 315 333 57 71 346 330 165 12 20 37 325 82 65 53 16 16 357 12 348 67 10 350 338 11 352 308 348 311 303 320 294 24 285 263 159 172 183 202 173 31 345
9 10 347 358 327 41 40 339 331 269 70 28 35 357 260 63 296 45 51 347 46 327 352 317 14 351 349 336 327 280 313 300 283 272 36 214 81 275 148 186 159 116 65 23 347
10 4 331 298 91 39 321 309 263 44 348 40 1 359 356 65 43 331 42 357 132 293 220 240 110 58 331 298 11 329 315 313 80 166 356 253 104 281 197 148 61 64 42 1 348
347 358 16 341 43 336 298 232 25 63 71 344 342 353 328 349 8 9 73 35 26 1 22 303 101 124 324 316 304 352 345 348 3 356 249 207 306 240 73 118 105 303 359 349 329
340 316 42 48 36 310 244 246 61 260 34 30 319 304 44 356 55 2 14 49 35 357 292 344 326 33 358 117 221 312 71 113 291 320 295 289 230 262 178 127 134 11 342 331 335
309 200 188 61 332 284 273 51 92 26 323 347 295 307 126 120 310 360 85 61 36 12 60 353 279 130 79 62 52 322 33 282 261 252 270 251 287 25 30 29 2 342 333 327 323
285 254 88 38 202 256 63 106 94 26 333 268 22 48 327 350 10 31 26 257 147 178 121 69 300 77 141 148 176 117 282 40 335 329 302 278 308 241 340 330 345 324 320 316 313
264 286 92 126 232 41 79 92 121 112 356 15 26 317 348 311 337 322 300 159 2 92 129 100 126 281 254 175 168 10 348 1 159 164 229 301 270 209 280 345 325 325 318 315 312
294 307 141 184 53 38 68 82 73 145 174 119 74 111 223 334 297 306 290 121 145 251 324 86 288 280 293 329 27 337 218 138 127 283 254 187 270 277 227 337 334 317 314 314 312
322 327 209 202 77 98 165 98 70 154 169 171 127 179 137 270 331 219 336 117 149 339 53 178 243 307 313 359 336 216 204 180 159 204 222 172 263 280 323 322 315 310 315 315 314
334 346 26 63 79 109 146 157 148 35 92 58 83 139 223 243 192 279 284 127 148 191 84 145 265 199 216 242 9 293 201 183 157 232 234 235 288 301 311 315 314 315 314 313 308
14 56 71 12 39 94 103 132 144 183 223 197 200 231 157 275 287 212 202 287 133 138 188 157 259 252 261 268 272 274 274 236 198 235 212 280 287 291 302 310 314 312 310 312 311
148 122 323 91 277 147 150 214 196 144 144 202 222 151 187 195 203 266 317 233 279 172 229 118 276 331 281 260 206 246 242 229 238 258 260 268 274 280 300 305 305 308 311 310 308
33 42 104 152 173 133 223 169 204 137 194 38 194 175 227 252 346 359 336 301 249 185 223 188 303 333 272 308 299 290 229 201 235 218 214 282 281 307 306 304 308 313 309 309 315